Home > Weather > Malakal > Past weeks

Flag for South Sudan Past Weather in Malakal, South Sudan — Yesterday and Last 2 Weeks

Now
86 °F

Sunny.


Feels Like: 86 °F
Forecast: 78 / 92 °F
Wind: 16 mph from Southwest

Location: Khartoum Airport

Current Time: Jul 2, 2016 at 8:51:16 AM

Latest Report: Jul 2, 2016 at 8:30 AM


Visibility: 10 mi

Pressure: 29.86 "Hg

Humidity: 43%

Dew Point: 61 °F

Location of MalakalLocation

Past Weather in Malakal — Graph

°F

Malakal Temperature Yesterday

Maximum temperature yesterday: 106 °F (at 3:00 PM)
Minimum temperature yesterday: 86 °F (at 5:30 AM)
Average temperature yesterday: 96 °F

High & Low Weather Summary for the Past Weeks

 TemperatureHumidityPressure
High108 °F (Jun 28, 5:00 PM)74% (Jun 21, 4:00 AM)29.98 "Hg (Jun 21, 4:00 AM)
Low75 °F (Jun 21, 4:00 AM)8% (Jun 28, 5:00 PM)29.56 "Hg (Jun 18, 10:00 PM)
Average93 °F32%29.84 "Hg
* Reported Jun 17 7:00 AM — Jul 2 7:30 AM, Malakal, Weather by CustomWeather, © 2016

Note: Actual official high and low records may vary slightly from our data, if they occured in-between our weather recording intervals... More about our weather records

Advertising

Malakal Weather History for the Previous 24 Hours

Scroll right to see more
 ConditionsComfort  
Time TempWeatherWind HumidityBarometerVisibility
7:30 AM
Sat, Jul 2
84 °FSunny.15 mph48%29.86 "Hg10 mi
7:00 AM84 °FSunny.15 mph48%29.83 "Hg10 mi
6:30 AM84 °FSunny.14 mph48%29.83 "Hg10 mi
6:00 AM84 °FThunderstorms. Passing clouds.N/A48%29.83 "HgN/A
5:30 AM84 °FClear.14 mph51%29.83 "Hg10 mi
5:00 AM86 °FClear.12 mph49%29.83 "Hg10 mi
4:30 AM86 °FClear.10 mph49%29.80 "Hg10 mi
4:00 AM88 °FClear.10 mph43%29.80 "Hg10 mi
3:30 AM88 °FClear.18 mph43%29.80 "Hg10 mi
3:00 AM90 °FClear.15 mph41%29.80 "Hg10 mi
2:00 AM91 °FClear.13 mph34%29.80 "Hg10 mi
1:30 AM93 °FClear.9 mph24%29.83 "Hg10 mi
1:00 AM93 °FClear.12 mph24%29.83 "Hg10 mi
12:30 AM93 °FExtremely hot.6 mph20%29.83 "Hg5 mi
12:00 AM93 °FClear.7 mph20%29.83 "Hg10 mi
11:30 PM
Fri, Jul 1
95 °FClear.7 mph13%29.83 "Hg10 mi
11:00 PM95 °FClear.3 mph13%29.83 "Hg10 mi
10:30 PM99 °FClear.3 mph13%29.83 "Hg10 mi
10:00 PM99 °FClear.6 mph13%29.83 "Hg10 mi
9:30 PM99 °FClear.3 mph13%29.80 "Hg10 mi
9:00 PM99 °FClear.3 mph13%29.80 "Hg10 mi
8:30 PM99 °FClear.3 mph14%29.80 "Hg10 mi
8:00 PM100 °FClear.No wind12%29.77 "Hg10 mi
7:30 PM102 °FClear.No wind11%29.77 "Hg10 mi
7:00 PM104 °FSunny.No wind10%29.77 "Hg10 mi
6:30 PM106 °FSunny.3 mph9%29.74 "Hg10 mi
6:00 PM106 °FSunny.3 mph9%29.74 "Hg10 mi
5:30 PM106 °FSunny.No wind9%29.77 "Hg10 mi
5:00 PM106 °FSunny.No wind9%29.77 "Hg10 mi
4:30 PM106 °FSunny.7 mph9%29.77 "Hg10 mi
4:00 PM106 °FSunny.No wind9%29.80 "Hg10 mi
3:30 PM106 °FSunny.6 mph9%29.80 "Hg10 mi
3:00 PM106 °FSunny.3 mph9%29.80 "Hg10 mi
2:30 PM104 °FSunny.6 mph14%29.83 "Hg10 mi
2:00 PM104 °FSunny.10 mph14%29.83 "Hg10 mi
1:30 PM102 °FSunny.7 mph16%29.83 "Hg10 mi
1:00 PM102 °FSunny.8 mph16%29.83 "Hg10 mi
12:30 PM100 °FSunny.10 mph18%29.86 "Hg10 mi
12:00 PM99 °FSunny.10 mph21%29.86 "Hg10 mi
11:30 AM99 °FSunny.14 mph24%29.86 "Hg10 mi
11:00 AM95 °FSunny.13 mph30%29.86 "Hg10 mi
10:30 AM93 °FSunny.14 mph32%29.89 "Hg10 mi
10:00 AM93 °FSunny.9 mph36%29.89 "Hg10 mi
9:30 AM90 °FSunny.13 mph41%29.89 "Hg10 mi
9:00 AM90 °FSunny.8 mph41%29.89 "Hg10 mi
8:30 AM86 °FSunny.9 mph49%29.89 "Hg10 mi
8:00 AM86 °FSunny.8 mph49%29.89 "Hg10 mi
Weather by CustomWeather, © 2016

See weather overviewHow to use our weather pages